This is the latest recevied weather packets stored in our database for station/object XQ6AK-15. If no packets are shown the sender has not sent any weather packets the latest 10 day(s).
| Time | Temp. | Humidity | Pressure | Rain* | Wind** | Luminosity | Snow |
|---|---|---|---|---|---|---|---|
| 1777758891 | 8.89° C | 90% | 1015 hPa | 0 mm | - | 2 W/m² | - |
| 1777758588 | 9.44° C | 88% | 1014.9 hPa | 0 mm | - | 5 W/m² | - |
| 1777758284 | 9.44° C | 85% | 1014.9 hPa | 0 mm | - | 8 W/m² | - |
| 1777757982 | 10° C | 84% | 1015 hPa | 0 mm | - | 12 W/m² | - |
| 1777757678 | 10.56° C | 82% | 1014.9 hPa | 0 mm | - | 16 W/m² | - |
| 1777757377 | 10.56° C | 79% | 1014.9 hPa | 0 mm | - | 19 W/m² | - |
| 1777757076 | 11.11° C | 76% | 1014.9 hPa | 0 mm | - | 21 W/m² | - |
| 1777756772 | 11.67° C | 75% | 1014.8 hPa | 0 mm | - | 23 W/m² | - |
| 1777756468 | 11.67° C | 69% | 1015 hPa | 0 mm | - | 23 W/m² | - |
| 1777756166 | 11.67° C | 68% | 1015 hPa | 0 mm | - | 25 W/m² | - |
| 1777755862 | 12.22° C | 69% | 1015.1 hPa | 0 mm | - | 27 W/m² | - |
| 1777755560 | 12.22° C | 68% | 1015 hPa | 0 mm | - | 32 W/m² | - |
| 1777755255 | 12.22° C | 68% | 1015.3 hPa | 0 mm | - | 32 W/m² | - |
| 1777754953 | 12.22° C | 67% | 1015.2 hPa | 0 mm | - | 35 W/m² | - |
| 1777754650 | 12.22° C | 67% | 1015.2 hPa | 0 mm | - | 37 W/m² | - |
| 1777754348 | 12.78° C | 67% | 1015.1 hPa | 0 mm | - | 39 W/m² | - |
| 1777754045 | 12.78° C | 68% | 1015 hPa | 0 mm | - | 42 W/m² | - |
| 1777753740 | 12.78° C | 66% | 1015.1 hPa | 0 mm | - | 42 W/m² | - |
| 1777753438 | 12.78° C | 65% | 1015.2 hPa | 0 mm | - | 44 W/m² | - |
| 1777753136 | 12.78° C | 64% | 1015.2 hPa | 0 mm | - | 73 W/m² | - |
| 1777752831 | 12.78° C | 63% | 1015.3 hPa | 0 mm | - | 111 W/m² | - |
| 1777752528 | 12.78° C | 64% | 1015.2 hPa | 0 mm | - | 51 W/m² | - |
| 1777752223 | 12.78° C | 63% | 1015.2 hPa | 0 mm | - | 56 W/m² | - |
| 1777751922 | 12.78° C | 65% | 1015.3 hPa | 0 mm | - | 52 W/m² | - |
| 1777751618 | 12.78° C | 64% | 1015.2 hPa | 0 mm | - | 49 W/m² | - |
* Rain latest hour (hover to see other rain measurements)
** Current wind speed in m/s (hover to see current wind gust speed)